Location: Bay Ridge
(40.6340°N, 74.0146°W)
Time: 04:05:09
(UTC+00:00)

Cosmos 1328 Rocket - Visible Passes

Search period start: 28 February 2020 00:00
Search period end: 09 March 2020 00:00
Orbit: 602 x 627 km, 82.5° (Epoch: 27 February)

Date Brightness Start Highest point End Pass type
(mag) Time Alt. Az. Time Alt. Az. Time Alt. Az.
28 Feb 3.6 09:55:27 10° S 09:59:53 82° E 10:04:20 10° N visible
29 Feb 6.7 08:36:37 10° ESE 08:38:31 13° E 08:40:25 10° ENE visible
29 Feb 3.6 10:11:24 10° SSW 10:15:45 54° W 10:20:06 10° N visible
01 Mar 5.9 08:50:41 10° SE 08:54:06 22° E 08:57:33 10° NE visible
01 Mar 4.4 10:27:48 10° SW 10:31:41 30° WNW 10:35:35 10° NNW visible
02 Mar 4.8 09:06:48 17° SSE 09:09:48 40° E 09:13:55 10° NNE visible
02 Mar 5.0 10:44:46 10° WSW 10:47:43 17° WNW 10:50:41 10° NNW visible
03 Mar 3.7 09:23:52 37° S 09:25:33 75° E 09:29:59 10° NNE visible
04 Mar 6.6 08:03:30 11° E 08:04:13 11° E 08:05:37 10° ENE visible
04 Mar 3.5 09:40:36 50° SW 09:41:24 59° W 09:45:46 10° N visible
05 Mar 6.0 08:20:01 20° E 08:20:01 20° E 08:23:03 10° NE visible
05 Mar 4.2 09:57:07 32° W 09:57:20 32° WNW 10:01:19 10° NNW visible
06 Mar 5.2 08:36:24 32° ENE 08:36:24 32° ENE 08:39:31 10° NNE visible
06 Mar 5.0 10:13:30 19° WNW 10:13:30 19° WNW 10:16:29 10° NNW visible
07 Mar 4.6 08:52:40 40° NNE 08:52:40 40° NNE 08:55:36 10° NNE visible
07 Mar 5.6 10:29:45 11° WNW 10:29:45 11° WNW 10:30:29 10° NW visible
08 Mar 4.7 09:08:51 34° N 09:08:51 34° N 09:11:26 10° N visible
